STARLINK-35678

Last updated on Fri Dec 19 2025 00:02:09 GMT+0000 (Coordinated Universal Time)

1 66971U 25288N 25352.58336806 -.01315946 00000+0 -58110-2 0 9997 2 66971 43.0012 131.3707 0001480 274.0855 311.2808 15.86193093 2771
UTC large
Height (km)
Speed (km/s)
/
Latitude / Longitude
Inclination (degrees)
Orbital Period (minutes)
Azimuth
Elevation
Range (km)
Doppler Factor

Next 0 passes for location: London (51.5072 / 0.1276)

Sorry there are no passes over London.